| time (UTC) | temp F | wind direction | speed MPH | gust MPH | rain 1hr in | rain 24hr in | rain mn in | humidity % | barometer mb |
| 20260506201538 | 60 | 0 | 1.0 | 8.0 | 0.00 | 0.03 | 0.02 | 43 | 1018.5 |
| 20260506200030 | 59 | 360 | 1.0 | 17.0 | 0.00 | 0.03 | 0.02 | 38 | 1018.5 |
| 20260506194528 | 59 | 288 | 2.0 | 7.0 | 0.00 | 0.03 | 0.02 | 38 | 1018.6 |
| 20260506193028 | 59 | 40 | 1.0 | 11.0 | 0.00 | 0.03 | 0.02 | 42 | 1018.7 |
| 20260506191533 | 58 | 30 | 0.0 | 9.0 | 0.00 | 0.03 | 0.02 | 42 | 1018.8 |
| 20260506190032 | 58 | 0 | 0.0 | 13.0 | 0.00 | 0.03 | 0.02 | 39 | 1018.7 |
| 20260506184533 | 58 | 352 | 1.0 | 12.0 | 0.00 | 0.03 | 0.02 | 43 | 1018.9 |
| 20260506183032 | 58 | 33 | 2.0 | 9.0 | 0.00 | 0.03 | 0.02 | 44 | 1019.2 |
| 20260506181532 | 57 | 0 | 1.0 | 8.0 | 0.00 | 0.03 | 0.02 | 46 | 1019.5 |
| 20260506180033 | 57 | 26 | 3.0 | 8.0 | 0.00 | 0.03 | 0.02 | 38 | 1019.5 |
| 20260506174535 | 58 | 55 | 0.0 | 7.0 | 0.00 | 0.04 | 0.02 | 46 | 1019.5 |
| 20260506173032 | 57 | 43 | 0.0 | 13.0 | 0.00 | 0.04 | 0.02 | 46 | 1019.5 |
| 20260506171539 | 56 | 0 | 1.0 | 7.0 | 0.00 | 0.04 | 0.02 | 40 | 1019.6 |
| 20260506170028 | 56 | 32 | 1.0 | 8.0 | 0.00 | 0.04 | 0.02 | 44 | 1019.8 |
| 20260506164530 | 57 | 28 | 3.0 | 10.0 | 0.00 | 0.06 | 0.02 | 45 | 1019.7 |
| 20260506163034 | 56 | 42 | 2.0 | 11.0 | 0.00 | 0.06 | 0.02 | 42 | 1019.5 |
| 20260506161532 | 57 | 0 | 1.0 | 10.0 | 0.00 | 0.06 | 0.02 | 45 | 1019.6 |
| 20260506160031 | 57 | 10 | 2.0 | 10.0 | 0.00 | 0.06 | 0.02 | 53 | 1019.2 |
| 20260506154533 | 55 | 48 | 5.0 | 14.0 | 0.00 | 0.07 | 0.02 | 45 | 1018.9 |
| 20260506153030 | 55 | 16 | 3.0 | 10.0 | 0.00 | 0.07 | 0.02 | 46 | 1019.0 |
| 20260506151530 | 55 | 30 | 3.0 | 10.0 | 0.00 | 0.07 | 0.02 | 48 | 1018.8 |
| 20260506150030 | 55 | 11 | 0.0 | 7.0 | 0.00 | 0.07 | 0.02 | 56 | 1018.9 |
| 20260506144536 | 54 | 0 | 1.0 | 5.0 | 0.00 | 0.13 | 0.02 | 58 | 1019.0 |
| 20260506143031 | 53 | 0 | 1.0 | 8.0 | 0.00 | 0.13 | 0.02 | 59 | 1018.9 |
| 20260506141529 | 51 | 0 | 0.0 | 5.0 | 0.00 | 0.13 | 0.02 | 67 | 1018.8 |
| 20260506140034 | 50 | 0 | 0.0 | 4.0 | 0.00 | 0.13 | 0.02 | 70 | 1018.6 |
| 20260506134530 | 49 | 38 | 0.0 | 5.0 | 0.00 | 0.21 | 0.02 | 72 | 1018.3 |
| 20260506133034 | 49 | 0 | 0.0 | 4.0 | 0.00 | 0.21 | 0.02 | 74 | 1018.4 |
| 20260506131532 | 49 | 28 | 1.0 | 5.0 | 0.00 | 0.21 | 0.02 | 75 | 1018.1 |
| 20260506130033 | 47 | 28 | 0.0 | 7.0 | 0.00 | 0.21 | 0.02 | 81 | 1017.7 |
| 20260506124533 | 46 | 0 | 0.0 | 2.0 | 0.00 | 0.25 | 0.02 | 87 | 1017.5 |
| 20260506123028 | 45 | 0 | 0.0 | 1.0 | 0.00 | 0.25 | 0.02 | 90 | 1017.1 |
| 20260506121530 | 45 | 0 | 0.0 | 1.0 | 0.00 | 0.25 | 0.02 | 90 | 1016.8 |
| 20260506120030 | 44 | 0 | 0.0 | 0.0 | 0.00 | 0.25 | 0.02 | 90 | 1016.6 |
| 20260506114538 | 44 | 0 | 0.0 | 0.0 | 0.00 | 0.26 | 0.02 | 89 | 1016.2 |
| 20260506113031 | 45 | 0 | 0.0 | 0.0 | 0.00 | 0.26 | 0.02 | 89 | 1016.1 |
| 20260506111528 | 45 | 0 | 0.0 | 2.0 | 0.00 | 0.26 | 0.02 | 89 | 1016.0 |
| 20260506110032 | 45 | 339 | 0.0 | 3.0 | 0.00 | 0.26 | 0.02 | 89 | 1016.2 |
| 20260506104532 | 45 | 278 | 0.0 | 6.0 | 0.00 | 0.26 | 0.02 | 90 | 1016.6 |
| 20260506103033 | 45 | 238 | 1.0 | 4.0 | 0.00 | 0.26 | 0.02 | 90 | 1016.5 |
| 20260506101531 | 45 | 296 | 0.0 | 4.0 | 0.00 | 0.26 | 0.02 | 91 | 1016.6 |
| 20260506100028 | 45 | 292 | 0.0 | 4.0 | 0.00 | 0.26 | 0.02 | 91 | 1016.2 |
| 20260506094530 | 45 | 262 | 0.0 | 1.0 | 0.00 | 0.26 | 0.02 | 91 | 1015.9 |
| 20260506093028 | 45 | 0 | 0.0 | 1.0 | 0.00 | 0.26 | 0.02 | 91 | 1015.6 |
| 20260506091532 | 45 | 0 | 0.0 | 1.0 | 0.00 | 0.26 | 0.02 | 91 | 1015.6 |
| 20260506090029 | 45 | 0 | 0.0 | 1.0 | 0.00 | 0.26 | 0.02 | 90 | 1015.6 |
| 20260506084534 | 45 | 0 | 0.0 | 2.0 | 0.00 | 0.26 | 0.02 | 90 | 1015.6 |
| 20260506083030 | 45 | 0 | 0.0 | 2.0 | 0.00 | 0.26 | 0.02 | 90 | 1015.6 |
| 20260506081530 | 45 | 177 | 0.0 | 1.0 | 0.00 | 0.26 | 0.02 | 90 | 1015.6 |
| 20260506073032 | 45 | 0 | 0.0 | 1.0 | 0.00 | 0.27 | 0.02 | 88 | 1014.7 |
| 20260506071531 | 45 | 0 | 0.0 | 1.0 | 0.00 | 0.27 | 0.02 | 87 | 1014.7 |
| 20260506061532 | 46 | 0 | 0.0 | 0.0 | 0.01 | 0.27 | 0.02 | 83 | 1015.2 |
| 20260506044537 | 49 | 22 | 7.0 | 15.0 | 0.01 | 0.25 | 0.25 | 69 | 1015.4 |
| 20260506043031 | 50 | 288 | 0.0 | 6.0 | 0.01 | 0.25 | 0.25 | 66 | 1015.2 |
| 20260506041530 | 51 | 75 | 2.0 | 7.0 | 0.00 | 0.24 | 0.24 | 63 | 1015.2 |
| 20260506040030 | 51 | 44 | 3.0 | 12.0 | 0.00 | 0.24 | 0.24 | 65 | 1014.7 |
| 20260506034530 | 49 | 0 | 1.0 | 9.0 | 0.00 | 0.24 | 0.24 | 78 | 1014.6 |
| 20260506033035 | 50 | 0 | 0.0 | 0.0 | 0.00 | 0.24 | 0.24 | 78 | 1014.2 |
| 20260506031536 | 50 | 0 | 0.0 | 0.0 | 0.00 | 0.24 | 0.24 | 74 | 1013.8 |
| 20260506030050 | 50 | 0 | 0.0 | 3.0 | 0.00 | 0.24 | 0.24 | 71 | 1013.3 |
| 20260506024531 | 50 | 0 | 0.0 | 3.0 | 0.00 | 0.24 | 0.24 | 71 | 1013.1 |
| 20260506023030 | 50 | 69 | 0.0 | 3.0 | 0.00 | 0.24 | 0.24 | 73 | 1013.1 |
| 20260506021532 | 49 | 0 | 0.0 | 5.0 | 0.00 | 0.24 | 0.24 | 75 | 1012.9 |
| 20260506020029 | 49 | 0 | 0.0 | 0.0 | 0.00 | 0.24 | 0.24 | 78 | 1012.6 |
| 20260506014534 | 50 | 0 | 0.0 | 0.0 | 0.00 | 0.24 | 0.24 | 78 | 1012.4 |
| 20260506013032 | 51 | 0 | 0.0 | 0.0 | 0.00 | 0.24 | 0.24 | 78 | 1012.4 |
| 20260506011537 | 52 | 0 | 0.0 | 0.0 | 0.00 | 0.24 | 0.24 | 78 | 1012.0 |
| 20260506010030 | 52 | 0 | 0.0 | 0.0 | 0.00 | 0.24 | 0.24 | 80 | 1012.0 |
| 20260506004544 | 53 | 0 | 0.0 | 0.0 | 0.00 | 0.24 | 0.24 | 82 | 1011.9 |
| 20260506003039 | 53 | 0 | 0.0 | 1.0 | 0.00 | 0.24 | 0.24 | 80 | 1011.8 |
| 20260506001534 | 53 | 0 | 0.0 | 2.0 | 0.00 | 0.24 | 0.24 | 79 | 1011.8 |
| 20260506000033 | 53 | 0 | 0.0 | 2.0 | 0.00 | 0.24 | 0.24 | 79 | 1011.6 |
| 20260505234533 | 53 | 0 | 0.0 | 3.0 | 0.00 | 0.24 | 0.24 | 78 | 1011.6 |
| 20260505233030 | 53 | 288 | 0.0 | 2.0 | 0.00 | 0.24 | 0.24 | 77 | 1011.6 |
| 20260505231531 | 53 | 0 | 0.0 | 2.0 | 0.00 | 0.24 | 0.24 | 78 | 1011.7 |
| 20260505230041 | 53 | 0 | 0.0 | 0.0 | 0.00 | 0.24 | 0.24 | 76 | 1012.1 |
| 20260505224536 | 53 | 0 | 0.0 | 0.0 | 0.00 | 0.24 | 0.24 | 75 | 1011.4 |
| 20260505223033 | 54 | 0 | 0.0 | 2.0 | 0.00 | 0.24 | 0.24 | 76 | 1011.4 |
| 20260505221530 | 53 | 0 | 0.0 | 1.0 | 0.00 | 0.24 | 0.24 | 76 | 1011.6 |
| 20260505220037 | 53 | 0 | 0.0 | 1.0 | 0.00 | 0.24 | 0.24 | 76 | 1011.7 |
| 20260505214535 | 53 | 0 | 0.0 | 0.0 | 0.00 | 0.24 | 0.24 | 76 | 1011.8 |
| 20260505213032 | 53 | 0 | 0.0 | 1.0 | 0.00 | 0.24 | 0.24 | 75 | 1012.0 |
| 20260505211528 | 53 | 41 | 0.0 | 3.0 | 0.00 | 0.24 | 0.24 | 75 | 1011.8 |
| 20260505210032 | 53 | 0 | 0.0 | 3.0 | 0.00 | 0.24 | 0.24 | 76 | 1011.9 |
| 20260505204534 | 52 | 0 | 0.0 | 4.0 | 0.00 | 0.24 | 0.24 | 76 | 1012.2 |
| 20260505203034 | 52 | 0 | 1.0 | 6.0 | 0.00 | 0.24 | 0.24 | 77 | 1012.2 |